[[{"header":{"parameterUnit":"m.s-1","parameterCategory":2,"la1":30.2992,"la2":30.254,"lo1":-89.0895,"lo2":-89.0443,"dy":0.0025,"dx":0.0025,"nx":19,"ny":19,"refTime":"2026-05-01T09:00:00:Z","depth":"0","parameterNumber":2,"parameterNumberName":"U-component_of_CURRENTS"},"data":[0,0,0,0.2243,0.2243,0.2269,0.2269,0.2297,0.2297,0,0,0,0,0,0,0,0,0,0,0,0.2231,0.2231,0.2243,0.2244,0.2269,0.2269,0.2297,0.2297,0,0,0,0,0,0,0,0,0,0,0,0.2231,0.2231,0.2231,0.2244,0.2269,0.2269,0.2297,0.2277,0,0,0,0,0,0,0,0,0,0,0.2252,0.2241,0.2231,0.2231,0.2244,0.2269,0.2269,0.2276,0.2278,0.2287,0,0.2296,0,0.2303,0.23,0.23,0,0,0,0.2235,0.2239,0.2252,0.2231,0.2244,0.2269,0.2255,0.2277,0.228,0.229,0.2296,0.2297,0.2303,0.23,0.23,0.238,0.238,0,0,0.2234,0.2229,0.225,0.2254,0.2258,0.2255,0.2256,0.2279,0.2281,0.2296,0.2298,0.2304,0.2301,0.2301,0.2379,0.238,0,0,0,0.2235,0.2228,0.224,0.2252,0.2261,0.2255,0.2257,0.2279,0.2285,0.2298,0.2304,0.2301,0.2301,0.2379,0.238,0.2416,0,0,0,0.2234,0.2229,0.2239,0.2235,0.226,0.2271,0.2257,0.2283,0.2286,0.2304,0.2301,0.2302,0.2378,0.2379,0.2414,0.2451,0,0,0,0.2228,0.2229,0.2235,0.2235,0.2251,0.2271,0.2277,0.2284,0.229,0.23,0.2302,0.2378,0.2379,0.2412,0.2447,0.2502,0,0,0,0.2217,0.223,0.2235,0.2256,0.2251,0.2291,0.2277,0.2297,0.2308,0.2301,0.2378,0.2379,0.2411,0.2445,0.2499,0.2513,0.2528,0,0,0.2227,0.2231,0.2245,0.2251,0.2286,0.2286,0.2332,0.2333,0.2334,0.2367,0.2369,0.2415,0.2447,0.2501,0.2593,0.2606,0,0,0,0.2245,0.2252,0.2266,0.2287,0.2316,0.2352,0.2355,0.2372,0.2404,0.2349,0.2433,0.2453,0.2486,0.2488,0.2498,0.2496,0.2386,0.2386,0.2386,0.2234,0.2257,0.228,0.2312,0.2347,0.2396,0.2435,0.2462,0.2443,0.247,0.2495,0.2582,0.2585,0.2593,0.2591,0.2498,0.2499,0.2499,0.2499,0.2236,0.2245,0.2286,0.2315,0.237,0.2417,0.251,0.2523,0.2599,0.2558,0.2587,0.2542,0.2606,0.26,0.2502,0.2501,0.2501,0.25,0.25,0.221,0.2219,0.2239,0.229,0.2358,0.2438,0.254,0.2607,0.2649,0.2688,0.2694,0.2693,0.2677,0.2697,0.2697,0.2698,0.2698,0.2698,0.2699,0.217,0.2193,0.2211,0.2272,0.2311,0.2415,0.2563,0.2637,0.2738,0.2762,0.2762,0.2718,0.2643,0.2625,0.2705,0.2704,0.2703,0.2703,0.2702,0.2136,0.215,0.2172,0.2202,0.2291,0.2343,0.2512,0.2678,0.2776,0.2829,0.2846,0.2803,0.28,0.2791,0.2777,0.2892,0.2892,0.2892,0.2892,0.2105,0.2119,0.2128,0.2157,0.2219,0.2307,0.2395,0.2564,0.2779,0.2864,0.2924,0.2867,0.2859,0.2856,0.2845,0.2831,0.2957,0.2957,0.2957,0.2082,0.2096,0.2077,0.2106,0.2165,0.2234,0.2271,0.2426,0.2767,0.2959,0.2924,0.2922,0.2832,0.282,0.2805,0.2791,0.2762,0,0]},{"header":{"parameterUnit":"m.s-1","parameterCategory":2,"la1":30.2992,"la2":30.254,"lo1":-89.0895,"lo2":-89.0443,"dy":0.0025,"dx":0.0025,"nx":19,"ny":19,"refTime":"2026-05-01T09:00:00:Z","depth":"0","parameterNumber":3,"parameterNumberName":"V-component_of_CURRENTS"},"data":[0,0,0,-0.0053,-0.0053,-0.009,-0.009,-0.0155,-0.0155,0,0,0,0,0,0,0,0,0,0,0,-0.0043,-0.0043,-0.0053,-0.0053,-0.009,-0.009,-0.0155,-0.0155,0,0,0,0,0,0,0,0,0,0,0,-0.0043,-0.0043,-0.0043,-0.0053,-0.009,-0.009,-0.0154,-0.0126,0,0,0,0,0,0,0,0,0,0,-0.0089,-0.0071,-0.0043,-0.0043,-0.0053,-0.009,-0.009,-0.0124,-0.0127,-0.0139,0,-0.0138,0,-0.0141,-0.0159,-0.0159,0,0,0,-0.0067,-0.0068,-0.0077,-0.0044,-0.0054,-0.009,-0.0077,-0.0126,-0.013,-0.0143,-0.0139,-0.0141,-0.0142,-0.0159,-0.0159,-0.0156,-0.0156,0,0,-0.0065,-0.0054,-0.0074,-0.0079,-0.0055,-0.0076,-0.0078,-0.0128,-0.0129,-0.0139,-0.0142,-0.0143,-0.0159,-0.016,-0.0156,-0.0156,0,0,0,-0.005,-0.0053,-0.006,-0.0077,-0.0078,-0.0077,-0.0079,-0.0127,-0.0129,-0.0143,-0.0144,-0.016,-0.016,-0.0157,-0.0156,-0.0069,0,0,0,-0.0049,-0.0043,-0.0059,-0.0054,-0.0077,-0.01,-0.0077,-0.0126,-0.0131,-0.0143,-0.016,-0.0161,-0.0157,-0.0156,-0.0073,-0.0016,0,0,0,-0.0043,-0.0043,-0.0044,-0.0054,-0.0063,-0.0099,-0.0104,-0.0127,-0.0132,-0.0159,-0.0161,-0.0158,-0.0157,-0.0076,-0.0022,0.0007,0,0,0,-0.0037,-0.0012,-0.0044,-0.0018,-0.0062,-0.005,-0.0104,-0.011,-0.0127,-0.016,-0.0157,-0.0156,-0.0077,-0.0026,0.0004,0.0074,0.0095,0,0,0.0004,-0.0007,0.0009,-0.0019,0.0021,-0.0046,-0.0016,-0.0068,-0.0117,-0.0146,-0.0146,-0.0072,-0.0023,0.0006,0.0132,0.0152,0,0,0,0.0029,0.0045,0.005,0.0062,0.0051,0.0051,-0.0006,-0.0032,-0.0062,-0.012,-0.0075,-0.0047,-0.0032,0.0003,0.0019,-0.0098,-0.0152,-0.0152,-0.0152,0.0099,0.0098,0.0139,0.0139,0.0139,0.0114,0.0106,0.0059,-0.0003,-0.0003,0.002,0.01,0.0139,0.0151,0.003,0.0005,0.0006,0.0006,0.0006,0.0179,0.021,0.0205,0.0242,0.0234,0.0248,0.0211,0.0173,0.0157,0.0094,0.0104,0.009,0.0174,0.0038,0.0012,0.0011,0.001,0.001,0.0009,0.023,0.025,0.0262,0.0315,0.0357,0.0342,0.0399,0.0342,0.0252,0.0266,0.027,0.0269,0.0151,0.026,0.026,0.026,0.0261,0.0261,0.0261,0.0279,0.0299,0.0353,0.0399,0.0448,0.0511,0.0511,0.0507,0.0456,0.0386,0.0385,0.0174,0.0177,0.0169,0.0267,0.0266,0.0265,0.0265,0.0264,0.0356,0.0358,0.0449,0.0502,0.0624,0.0749,0.0728,0.0736,0.0679,0.067,0.0368,0.0433,0.041,0.0397,0.0393,0.0544,0.0544,0.0544,0.0544,0.0408,0.0415,0.0545,0.0652,0.0782,0.0864,0.1009,0.0975,0.0713,0.0553,0.0415,0.0354,0.0348,0.0315,0.0303,0.0295,0.0417,0.0416,0.0416,0.047,0.0501,0.0607,0.0704,0.0855,0.1003,0.116,0.1186,0.0751,0.0392,0.0238,0.0243,0.013,0.013,0.0055,0.0048,0.0025,0,0]}],[{"header":{"parameterUnit":"m.s-1","parameterCategory":2,"la1":30.2992,"la2":30.254,"lo1":-89.0895,"lo2":-89.0443,"dy":0.0025,"dx":0.0025,"nx":19,"ny":19,"refTime":"2026-05-01T09:00:00:Z","depth":"2","parameterNumber":2,"parameterNumberName":"U-component_of_CURRENTS"},"data":[0,0,0,0.2169,0.217,0.2204,0.2204,0.2237,0.2237,0,0,0,0,0,0,0,0,0,0,0,0.2154,0.2155,0.2169,0.217,0.2204,0.2204,0.2237,0.2237,0,0,0,0,0,0,0,0,0,0,0,0.2154,0.2155,0.2155,0.217,0.2204,0.2204,0.2237,0.2211,0,0,0,0,0,0,0,0,0,0,0.2179,0.2168,0.2155,0.2155,0.217,0.2204,0.2204,0.221,0.2213,0.222,0,0.2232,0,0.224,0.224,0.224,0,0,0,0.2161,0.2165,0.218,0.2155,0.2171,0.2204,0.2186,0.2212,0.2215,0.2224,0.2232,0.2234,0.2241,0.224,0.224,0.232,0.2321,0,0,0.2159,0.2155,0.2177,0.2182,0.2188,0.2185,0.2187,0.2214,0.2217,0.2232,0.2235,0.2241,0.224,0.2241,0.232,0.2321,0,0,0,0.216,0.2153,0.2167,0.218,0.219,0.2186,0.2189,0.2216,0.2222,0.2235,0.2242,0.2241,0.2241,0.2319,0.232,0.2358,0,0,0,0.2158,0.2154,0.2166,0.2162,0.219,0.2205,0.2191,0.222,0.2224,0.2242,0.2241,0.2241,0.2319,0.232,0.2356,0.2392,0,0,0,0.2151,0.2153,0.2161,0.2162,0.2182,0.2205,0.2212,0.2221,0.2228,0.224,0.2242,0.2318,0.232,0.2354,0.2388,0.2441,0,0,0,0.214,0.2155,0.2161,0.2184,0.2182,0.2223,0.2212,0.2236,0.2248,0.2241,0.2319,0.232,0.2353,0.2386,0.2438,0.2433,0.2446,0,0,0.2151,0.2156,0.2171,0.2178,0.2215,0.2217,0.2265,0.2271,0.2273,0.2306,0.2308,0.2357,0.2388,0.2441,0.2513,0.2523,0,0,0,0.2171,0.2179,0.2193,0.2217,0.2247,0.2284,0.2291,0.2309,0.2344,0.2289,0.2374,0.2393,0.2425,0.2416,0.2425,0.2327,0.2326,0.2326,0.2326,0.2165,0.2187,0.2211,0.2243,0.2278,0.233,0.237,0.2399,0.2381,0.241,0.2436,0.2522,0.2512,0.2519,0.2439,0.244,0.244,0.244,0.244,0.2169,0.2178,0.2219,0.225,0.2305,0.2353,0.2445,0.246,0.2536,0.2498,0.2526,0.2472,0.2531,0.2443,0.2443,0.2442,0.2442,0.2442,0.2441,0.2146,0.2155,0.2177,0.2228,0.2298,0.2377,0.2477,0.2545,0.2587,0.2625,0.2619,0.2618,0.2551,0.2636,0.2636,0.2637,0.2637,0.2637,0.2638,0.2109,0.2133,0.2152,0.2214,0.2254,0.2357,0.2503,0.2574,0.2666,0.2686,0.2685,0.2589,0.2582,0.2564,0.2644,0.2643,0.2642,0.2641,0.2641,0.2077,0.2093,0.2117,0.2147,0.2235,0.2275,0.2447,0.2599,0.2695,0.2739,0.2721,0.2717,0.2712,0.2703,0.2689,0.2797,0.2797,0.2797,0.2797,0.2049,0.2063,0.2075,0.2103,0.2164,0.2235,0.2277,0.2363,0.2538,0.2577,0.2585,0.2504,0.2505,0.2482,0.2478,0.2456,0.2504,0.2503,0.2502,0.2028,0.2041,0.2025,0.2054,0.211,0.2151,0.2104,0.2029,0.2194,0.2479,0.242,0.2799,0.2702,0.2694,0.2674,0.2663,0.2633,0,0]},{"header":{"parameterUnit":"m.s-1","parameterCategory":2,"la1":30.2992,"la2":30.254,"lo1":-89.0895,"lo2":-89.0443,"dy":0.0025,"dx":0.0025,"nx":19,"ny":19,"refTime":"2026-05-01T09:00:00:Z","depth":"2","parameterNumber":3,"parameterNumberName":"V-component_of_CURRENTS"},"data":[0,0,0,0.0061,0.006,0.0017,0.0016,-0.0048,-0.0048,0,0,0,0,0,0,0,0,0,0,0,0.0072,0.0072,0.0061,0.006,0.0017,0.0016,-0.0048,-0.0048,0,0,0,0,0,0,0,0,0,0,0,0.0072,0.0072,0.0072,0.006,0.0017,0.0016,-0.0048,-0.0016,0,0,0,0,0,0,0,0,0,0,0.0026,0.0043,0.0072,0.0072,0.006,0.0017,0.0016,-0.0014,-0.0018,-0.0027,0,-0.0028,0,-0.0033,-0.0052,-0.0052,0,0,0,0.0047,0.0046,0.0037,0.0072,0.006,0.0017,0.0033,-0.0016,-0.002,-0.0031,-0.0029,-0.0031,-0.0034,-0.0052,-0.0052,-0.0049,-0.0049,0,0,0.005,0.0059,0.004,0.0035,0.0055,0.0034,0.0031,-0.0019,-0.0021,-0.0029,-0.0033,-0.0035,-0.0052,-0.0053,-0.005,-0.0049,0,0,0,0.0065,0.0061,0.0052,0.0037,0.0034,0.0033,0.003,-0.0019,-0.0021,-0.0033,-0.0035,-0.0053,-0.0053,-0.005,-0.0049,0.0033,0,0,0,0.0066,0.0071,0.0054,0.0058,0.0035,0.0009,0.0031,-0.0018,-0.0024,-0.0035,-0.0053,-0.0054,-0.0051,-0.005,0.003,0.0085,0,0,0,0.0073,0.0072,0.0069,0.0059,0.0047,0.0009,0.0004,-0.002,-0.0024,-0.0052,-0.0054,-0.0051,-0.005,0.0027,0.0079,0.0107,0,0,0,0.0079,0.0101,0.007,0.0092,0.0047,0.0058,0.0004,-0.0004,-0.0022,-0.0053,-0.005,-0.005,0.0026,0.0076,0.0104,0.0169,0.0189,0,0,0.0116,0.0105,0.012,0.0092,0.0129,0.0062,0.009,0.0037,-0.0011,-0.0038,-0.0038,0.0031,0.0079,0.0107,0.0224,0.0243,0,0,0,0.0139,0.0154,0.0158,0.0168,0.0156,0.0155,0.0098,0.0072,0.004,-0.0015,0.0027,0.0055,0.007,0.0102,0.0117,-0.0045,-0.0045,-0.0045,-0.0045,0.0203,0.0203,0.0242,0.0242,0.0241,0.0216,0.0206,0.016,0.0098,0.0096,0.0119,0.0196,0.0231,0.0243,0.0104,0.0104,0.0105,0.0105,0.0105,0.0278,0.0308,0.0305,0.034,0.0333,0.0344,0.0308,0.0269,0.0251,0.019,0.0199,0.0184,0.0264,0.0112,0.011,0.0109,0.0109,0.0108,0.0108,0.0325,0.0345,0.0356,0.0409,0.0449,0.0434,0.049,0.0434,0.0343,0.0356,0.0357,0.0356,0.0248,0.0348,0.0349,0.0349,0.0349,0.035,0.035,0.0371,0.0391,0.0443,0.0489,0.0537,0.0599,0.0598,0.0593,0.0539,0.0468,0.0467,0.0277,0.0269,0.0262,0.0356,0.0355,0.0354,0.0353,0.0353,0.0445,0.0447,0.0535,0.0587,0.0709,0.083,0.0809,0.0811,0.0754,0.0741,0.0518,0.0512,0.0491,0.0478,0.0474,0.0618,0.0618,0.0618,0.0618,0.0495,0.0501,0.0628,0.0734,0.0863,0.0943,0.107,0.1015,0.0852,0.0732,0.0727,0.0689,0.0676,0.066,0.0643,0.0641,0.0828,0.0829,0.0829,0.0555,0.0586,0.0689,0.0784,0.0935,0.1077,0.1206,0.1148,0.0906,0.0834,0.0735,0.0638,0.0565,0.0551,0.0508,0.0489,0.0477,0,0]}],[{"header":{"parameterUnit":"m.s-1","parameterCategory":2,"la1":30.2992,"la2":30.254,"lo1":-89.0895,"lo2":-89.0443,"dy":0.0025,"dx":0.0025,"nx":19,"ny":19,"refTime":"2026-05-01T09:00:00:Z","depth":"4","parameterNumber":2,"parameterNumberName":"U-component_of_CURRENTS"},"data":[0,0,0,0.1419,0.1422,0.1572,0.1573,0.169,0.1691,0,0,0,0,0,0,0,0,0,0,0,0.1373,0.1374,0.1418,0.1422,0.1572,0.1573,0.169,0.1691,0,0,0,0,0,0,0,0,0,0,0,0.1372,0.1374,0.1376,0.1423,0.1572,0.1573,0.169,0.1595,0,0,0,0,0,0,0,0,0,0,0.1458,0.1432,0.1374,0.1376,0.1424,0.1572,0.1573,0.1591,0.1601,0.1601,0,0.1638,0,0.1665,0.1698,0.1698,0,0,0,0.1421,0.1425,0.146,0.1376,0.1425,0.1572,0.1504,0.1597,0.1608,0.1614,0.164,0.1645,0.1666,0.1698,0.1699,0.1821,0.1822,0,0,0.1413,0.1402,0.1453,0.1467,0.148,0.1499,0.1509,0.1605,0.1624,0.164,0.1648,0.1668,0.1699,0.1699,0.182,0.1821,0,0,0,0.139,0.1396,0.1431,0.1462,0.1494,0.1504,0.1515,0.162,0.1631,0.1649,0.167,0.1699,0.17,0.182,0.1821,0.1867,0,0,0,0.1385,0.1383,0.1427,0.1423,0.1493,0.157,0.1528,0.1624,0.1636,0.1669,0.1699,0.1701,0.1819,0.182,0.1864,0.1892,0,0,0,0.1363,0.1381,0.1402,0.1422,0.1486,0.157,0.1587,0.1628,0.1648,0.1698,0.1702,0.1819,0.182,0.1862,0.1887,0.1936,0,0,0,0.134,0.1377,0.1402,0.1455,0.1485,0.1572,0.1587,0.1663,0.1709,0.17,0.1819,0.1821,0.1861,0.1885,0.1934,0.1679,0,0,0,0.1364,0.138,0.1408,0.1435,0.1509,0.1551,0.164,0.1708,0.173,0.178,0.1784,0.1865,0.1887,0.1936,0.1771,0,0,0,0,0.14,0.1424,0.1452,0.1509,0.157,0.1648,0.171,0.1748,0.183,0.1766,0.1883,0.1896,0.1925,0.1769,0.1828,0.1828,0.1828,0.1828,0.1827,0.1404,0.1441,0.1492,0.1552,0.1617,0.1721,0.1791,0.1856,0.1863,0.1914,0.1947,0.2034,0.1871,0.1957,0.1957,0.1958,0.1958,0.1958,0.1958,0.1419,0.1438,0.1514,0.158,0.167,0.1761,0.1883,0.1924,0.2029,0.2009,0.2035,0.1844,0.1963,0.1962,0.1961,0.1961,0.196,0.196,0.196,0.1391,0.1403,0.1468,0.1568,0.1685,0.1803,0.1912,0.2015,0.2081,0.2127,0.1971,0.2078,0.206,0.2149,0.2149,0.2149,0.215,0.215,0.215,0.1323,0.1383,0.144,0.1558,0.1633,0.1766,0.1948,0.2009,0.2105,0.2011,0.2156,0.2099,0.2092,0.2072,0.2156,0.2155,0.2154,0.2154,0.2153,0.1265,0.1313,0.1376,0.1447,0.1593,0.166,0.1861,0.1918,0.1968,0.1942,0.1942,0.1951,0.1915,0.1914,0.1885,0.1916,0.1913,0.191,0,0.1216,0.1246,0.1315,0.1381,0.1449,0.1586,0.1596,0.1694,0.178,0.1717,0.1973,0.1971,0.1975,0.1932,0.1926,0.189,0,0,0,0.1178,0.1209,0.1225,0.1305,0.1363,0.1439,0.1586,0.156,0.1765,0.1738,0.1836,0.1856,0.2036,0.2172,0.2139,0.2131,0.2097,0,0]},{"header":{"parameterUnit":"m.s-1","parameterCategory":2,"la1":30.2992,"la2":30.254,"lo1":-89.0895,"lo2":-89.0443,"dy":0.0025,"dx":0.0025,"nx":19,"ny":19,"refTime":"2026-05-01T09:00:00:Z","depth":"4","parameterNumber":3,"parameterNumberName":"V-component_of_CURRENTS"},"data":[0,0,0,0.0251,0.025,0.0215,0.0214,0.0156,0.0156,0,0,0,0,0,0,0,0,0,0,0,0.0262,0.0262,0.0251,0.025,0.0215,0.0214,0.0157,0.0156,0,0,0,0,0,0,0,0,0,0,0,0.0262,0.0262,0.0262,0.025,0.0215,0.0214,0.0157,0.0184,0,0,0,0,0,0,0,0,0,0,0.0219,0.0237,0.0262,0.0262,0.025,0.0215,0.0214,0.0185,0.0182,0.0172,0,0.0174,0,0.0168,0.0153,0.0153,0,0,0,0.024,0.024,0.0231,0.0262,0.025,0.0215,0.0228,0.0184,0.018,0.0168,0.0173,0.0171,0.0167,0.0153,0.0152,0.0142,0.0142,0,0,0.0242,0.0252,0.0233,0.0229,0.0249,0.0229,0.0227,0.0182,0.0181,0.0173,0.0169,0.0166,0.0152,0.0152,0.0142,0.0142,0,0,0,0.0255,0.0254,0.0246,0.0231,0.0228,0.0228,0.0226,0.0183,0.0181,0.0169,0.0166,0.0152,0.0151,0.0141,0.0142,0.0206,0,0,0,0.0255,0.0262,0.0247,0.0252,0.023,0.0207,0.0228,0.0184,0.0179,0.0166,0.0152,0.0151,0.0141,0.0141,0.0204,0.025,0,0,0,0.0263,0.0262,0.0261,0.0253,0.0242,0.0208,0.0203,0.0182,0.0177,0.0153,0.0151,0.0141,0.0141,0.0202,0.0246,0.0263,0,0,0,0.027,0.0282,0.0262,0.0275,0.0243,0.0244,0.0203,0.0193,0.0176,0.0152,0.0141,0.0142,0.0201,0.0243,0.026,0.0278,0,0,0,0.0292,0.0285,0.0294,0.0275,0.0297,0.0247,0.0263,0.0219,0.018,0.0152,0.0152,0.0205,0.0245,0.0262,0.0311,0,0,0,0,0.0305,0.0315,0.0317,0.0324,0.0312,0.0311,0.0264,0.0242,0.0213,0.0175,0.0198,0.0222,0.023,0.0233,0.0144,0.0144,0.0144,0.0144,0.0144,0.0347,0.0347,0.0374,0.0374,0.0371,0.035,0.0341,0.0302,0.0253,0.0249,0.0269,0.0322,0.0326,0.0252,0.0252,0.0253,0.0253,0.0253,0.0253,0.0395,0.0417,0.042,0.0446,0.0444,0.045,0.0416,0.0385,0.0365,0.0319,0.0323,0.0294,0.0259,0.0258,0.0257,0.0257,0.0256,0.0256,0.0255,0.0427,0.0442,0.0457,0.0502,0.0538,0.0526,0.0564,0.0518,0.0439,0.0446,0.0424,0.0365,0.0365,0.0438,0.0439,0.0439,0.0439,0.044,0.044,0.0456,0.0476,0.0522,0.0566,0.061,0.0658,0.0654,0.0637,0.0562,0.0513,0.0466,0.0384,0.0378,0.0375,0.0444,0.0443,0.0443,0.0442,0.0442,0.0502,0.0513,0.0586,0.0636,0.0738,0.0773,0.0774,0.0716,0.0693,0.0638,0.0533,0.0527,0.0505,0.0496,0.0496,0.0604,0.0604,0.0605,0,0.0536,0.0544,0.0651,0.0741,0.0827,0.0846,0.0841,0.0805,0.0693,0.068,0.0678,0.0562,0.0556,0.0532,0.0525,0.0527,0,0,0,0.0576,0.0604,0.0685,0.0769,0.0866,0.0857,0.0841,0.0808,0.0713,0.0688,0.0617,0.0614,0.0553,0.0457,0.0409,0.0402,0.0395,0,0]}]]